Regional Weather Roundup
Issued by NWS Wakefield, VA

Home | Current Version | Previous Version | Graphics & Text | Print | Product List | Glossary On
Versions: 1 2 3 4 5 6 7 8 9 10 11 12 13 14 15 16 17 18 19 20 21 22 23 24 25 26 27 28 29 30 31 32 33 34 35 36 37 38 39 40 41 42 43 44 45 46 47 48 49 50
000
ASUS41 KAKQ 160510
RWRAKQ

REGIONAL WEATHER ROUNDUP
NATIONAL WEATHER SERVICE WAKEFIELD VA
100 AM EDT TUE SEP 16 2014

Note: "fair" indicates few or no clouds below 12,000 feet with no
significant weather and/or obstructions to visibility. * = Denotes
station may not report precipitation (e.g., rain,snow,etc.),
thunder or fog.

VAZ042-051-052>054-056-160600-
NORTHERN VIRGINIA

CITY           SKY/WX    TMP DP  RH WIND       PRES   REMARKS
WASH NATIONAL  CLOUDY    68  60  75 S6        30.04F
DULLES         CLOUDY    62  59  90 S5        30.04S
FORT BELVOIR   CLOUDY    61  60  95 CALM      30.04F
QUANTICO       CLOUDY    67  61  81 SW7       30.04F
FREDERICKSBRG* CLOUDY    67  62  83 S6        30.03S
STAFFORD*      NOT AVBL
WARRENTON      CLOUDY    63  63 100 CALM      30.04R
CULPEPER*      CLOUDY   N/A N/A N/A CALM      30.05R
MANASSAS*      CLOUDY    63  63 100 CALM      30.04R
LEESBURG*      CLOUDY    63  61  94 SW3       30.05S
WINCHESTER     CLOUDY    63  57  82 NW5       30.04R
FRONT ROYAL*   CLOUDY    61  55  82 S3        30.03S
LURAY*         CLOUDY    64  59  82 CALM      30.04S
$$

VAZ048-049-060>072-079>083-160600-
CENTRAL AND SOUTH CENTRAL VIRGINIA...AND NORTH CENTRAL NORTH CAROLINA

CITY           SKY/WX    TMP DP  RH WIND       PRES   REMARKS
RICHMOND       CLOUDY    66  62  87 S6        30.05F
CHESTERFIELD*  CLOUDY   N/A N/A N/A CALM      30.06F
PETERSBURG*    CLOUDY    64  62  94 CALM      30.07F
HANOVER        CLOUDY    66  62  87 S7        30.06F
TAPPAHANNOCK*  CLOUDY    64  61  88 SE3       30.05F
CHARLOTTSVILLE CLOUDY    66  62  87 SW6       30.04S
ORANGE*        CLOUDY    64  61  88 CALM      30.06R
LOUISA*        CLOUDY    64  63  94 CALM      30.03F
FARMVILLE*     CLOUDY    68  66  94 S7        30.02F
CREWE*         CLOUDY    68  65  90 S5        30.05F
FORT PICKETT*  CLOUDY    65  64  96 S6        30.06F
LUNENBURG*     CLOUDY    65  64  96 S6        30.07F
SOUTH HILL*    CLOUDY    66  66 100 S5        30.14R
LAWRENCEVILLE* CLOUDY    63  62  99 SW3       30.08R
ROANOKE RAPIDS CLOUDY    64  63  94 CALM      30.08S
RALEIGH        LGT RAIN  69  65  86 SW5       30.09F
$$

VAZ088>098-160600-
SOUTHEAST VIRGINIA

CITY           SKY/WX    TMP DP  RH WIND       PRES   REMARKS
NORFOLK        MOCLDY    66  59  78 S7        30.07F
VIRGINIA BEACH MOCLDY    66  60  81 S5        30.07F
NORFOLK NAVAL  CLOUDY    69  60  73 S5        30.08F
WEST POINT*    NOT AVBL
NEWPORT NEWS   CLOUDY    71  60  68 S8        30.06F
LANGLEY AFB    CLOUDY    68  62  81 S5        30.06F
FORT EUSTIS    CLOUDY    67  64  89 S8        30.05F
WILLIAMSBURG*  CLOUDY    70  63  78 S6        30.08F
HR EXEC AP*    MOCLDY    64  59  82 SE5       30.09F
FRANKLIN*        N/A     64  63  94 S3        30.07F
WAKEFIELD      CLOUDY    65  61  87 CALM      30.07F
$$

VAZ020-022-025-037-045-160600-
WEST CENTRAL AND SOUTHWEST VIRGINIA

CITY           SKY/WX    TMP DP  RH WIND       PRES   REMARKS
STAUNTON*      CLOUDY    65  59  82 CALM      30.08R
HOT SPRINGS VA MOCLDY    56  42  59 W20       30.15S
LYNCHBURG      CLOUDY    64  64 100 W3        30.09R
DANVILLE       MOCLDY    66  64  93 SW6       30.09F
SOUTH BOSTON*  NOT AVBL
MARTINSVILLE   CLOUDY    66  66  98 W3        30.12F
ROANOKE        MOCLDY    67  62  84 CALM      30.09S
BLACKSBURG     MOCLDY    63  63 100 SW3       30.14F
DUBLIN*        MOCLDY    62  62 100 SW6       30.14F
MARION*        MOCLDY    63  61  95 SW9       30.19F FOG
HILLSVILLE*    PTCLDY    60  60  99 SW9       30.16F
RICHLANDS*     DRIZZLE   66  63  89 SW5       30.17F
WISE*          CLOUDY    61  61 100 S3        30.18F
ABINGDON*      MOCLDY    65  65 100 SW5       30.17F FOG
$$

MDZ021>025-VAZ099-100-160600-
SOUTHERN MARYLAND AND THE DELMARVA PENINSULA

CITY           SKY/WX    TMP DP  RH WIND       PRES   REMARKS
PATUXENT RIVER PTCLDY    66  61  84 S9        30.04F
BAY BRIDGE APT   N/A     68  61  77 S8        30.04F
LEONARDTOWN    PTCLDY    64  59  82 S3        30.06F
DOVER          CLOUDY    60  55  82 SE5       30.05F
GEORGETOWN     CLOUDY    60  55  83 SE6       30.07F
EASTON         MOCLDY    64  61  92 CALM      30.09F
CAMBRIDGE      PTCLDY    66  61  82 CALM      30.05F
SALISBURY        N/A    N/A N/A N/A MISG        N/A
OCEAN CITY     MOCLDY    67  57  70 VRB3      30.07F
WALLOPS ISLAND CLOUDY    65  59  81 SW8       30.08F
ACCOMACK*      CLOUDY    61  57  88 CALM      30.07F
$$

NCZ012>017-030>032-160600-
EASTERN NORTH CAROLINA

CITY           SKY/WX    TMP DP  RH WIND       PRES   REMARKS
ELIZABETH CITY CLOUDY    70  63  78 S5        30.08F
AHOSKIE*       CLOUDY    66  64  93 S3        30.08F
EDENTON*       CLOUDY    71  65  81 S12       30.09F
CURRITUCK*     CLOUDY    69  61  76 S3        30.09F
KILL DEVIL HLS CLOUDY    69  61  75 CALM      30.09S
MANTEO         CLOUDY    69  61  76 CALM      30.10F
CAPE HATTERAS  CLOUDY    68  64  87 NE3       30.10F
TARBORO*       CLOUDY    68  66  92 CALM      30.09F
GOLDSBORO      CLOUDY    69  68  98 S3        30.07F
WASHINGTON     CLOUDY    69  66  90 CALM      30.10F
GREENVILLE     CLOUDY    70  68  94 CALM      30.10F
NEW BERN       MOCLDY    72  68  87 CALM      30.11F
WILMINGTON     MOCLDY    72  69  90 CALM      30.10F
$$

VAZ048-160600-
ELSEWHERE

CITY           SKY/WX    TMP DP  RH WIND       PRES   REMARKS
HARRISBURG PA  MOCLDY    58  52  80 E5        30.04F
BALTIMORE      CLOUDY    62  57  83 CALM      30.04F
ANNAPOLIS      CLOUDY    67  60  78 S7        30.04F
ANDREWS AFB    CLOUDY    60  59  95 S5        30.04F
WILMINGTON DE  CLOUDY    63  52  67 CALM      30.07F
PHILADELPHIA   CLOUDY    61  52  72 CALM      30.08F
WILDWOOD NJ*   MOCLDY    57  52  82 CALM      30.09S
ATLANTIC CITY  PTCLDY    54  52  93 CALM      30.08F
HENDERSON NC   CLOUDY    65  64  94 SW3       30.09S FOG
GREENSBORO     CLOUDY    68  65  90 W5        30.11S
ROCKY MOUNT    CLOUDY    67  65  93 CALM      30.09F
FAYETTEVILLE   MOCLDY    71  69  93 S3        30.09F
CHARLOTTE      CLOUDY    70  68  93 CALM      30.13S FOG
$$

VAZ100-160600-
MARINE

STATION/POSITION TIME  TEMP    WIND        PRES    WAVE   SWELL
                       AIR SEA DIR/SP/G            HT/PER HT/PER
                 (UTC) (F)     (DEG/KT/KT) (MB)    (FT/S) (FT/S)
44066 TX TWR #4  0500   66 73  120/  2/  2 1018.2F   2/ 7   2/ 7
CAPE MAY NJ      0500   66 75  170/  4/  6 1018.0
LEWES DE         0500   63 72  180/  4/  5 1018.1
15NM E FENWICK I 0500   67 72              1018.3F   1/13
OCEAN-CITY-INLET 0500   68 72  200/  8/ 12 1017.9
WACHAPREAGUE VA  0500   69 74  240/  5/  7 1018.4
THOMAS POINT MD  0500   69 74  200/ 17/ 18 1018.1F
GOOSES REEF MD   0500   69     210/ 14/ 17 1017.8F
COVE POINT MD    0500   68     200/ 12/ 13 1017.4F
SOLOMONS ISLAND  0500      76                N/A
BISHOPS HEAD MD  0500   70 73  200/ 12/ 14 1017.1
PINEY POINT MD   0400          210/ 14/ 15   N/A
POTOMAC MD       0500   69     210/ 16/ 17 1017.1S
CAMBRIDGE MD     0500   65 75  190/  3/  4 1017.4
LEWISETTA VA     0500   66 74  200/  9/ 10 1017.2
RAPPAHANNOCK LGT 0500          200/ 12/ 13 1018.6S
STINGRAY PT      0500   70     210/ 12/ 14   N/A
YORK RVR RNG VA  0500   70     200/ 11/ 13 1017.7F
YORKTOWN VA      0500   67 77  190/  4/  5 1018.0
JAMESTOWN VA     0500   66     180/  8/ 12   N/A
DOMINION TERM VA 0500   69     170/ 11/ 13 1018.4S
KIPTOPEKE VA     0500      78  190/ 12/ 15   N/A
CHES BAY BRIDGE  0500   69 76  160/ 11/ 13 1017.9
CAPE HENRY VA    0500   67     170/  7/  9 1017.2F
CHESAPEAKE LGHT  0400   70     190/  9/ 10 1020.0F
WILLOUBY STN VA  0500   69     160/  7/ 10 1017.0F
S CRANEY ISL VA  0500          170/  4/  6 1018.3S
CAPE HENRY BUOY  0500      76                N/A     2/13
1ST LANDING BUOY 0500   70     180/ 12/ 14 1018.0S
CAPE CHARLES BUO 0500      75                N/A     2/ 6   2/ 6
OFFSHORE WE BUOY 0500      74                N/A     2/ 8   2/ 8
64NM E OF VA BCH 0500   71 79  120/  4/  6 1018.6F   2/ 8   2/ 8
DUCK PIER NC     0500   71 76  170/  2/  4 1018.5
44100 DUCK FRF   0500      74                N/A     2/ 6
44056 DUCK FRF   0500                        N/A     2/ 8
OREGON INLET NC  0500   71 74  120/  3/  3 1019.3
HATTERAS NC      0500   72 77   40/  2/  3 1019.8
DIAMOND SHLS NC  0500   73     340/  6/  8 1019.2F   3/ 8   3/ 8
CAPE LOOKOUT NC  0400   74      50/  6/  7 1019.9F
$$


USA.gov is the U.S. government's official web portal to all federal, state and local government web resources and services.